H1 CPF 1 NER 2021 12 13 9 8471 glonass140 H2 1903001 9140 44299 2021 12 13 0 0 0 2021 12 16 23 45 0 900 1 1 0 0 0 H9 10 0 59561 0.00000 0 -10238903.401 -8272217.745 21868781.055 10 0 59561 900.00000 0 -7586052.504 -8966719.985 22664569.624 10 0 59561 1800.00000 0 -4924001.228 -9875143.981 23021195.422 10 0 59561 2700.00000 0 -2319980.515 -10980613.272 22931862.720 10 0 59561 3600.00000 0 162661.632 -12254691.909 22398388.922 10 0 59561 4500.00000 0 2466853.536 -13658478.674 21431163.137 10 0 59561 5400.00000 0 4543924.452 -15144154.683 20048943.029 10 0 59561 6300.00000 0 6355374.277 -16656920.632 18278493.840 10 0 59561 7200.00000 0 7874216.671 -18137243.805 16154076.157 10 0 59561 8100.00000 0 9085841.435 -19523322.212 13716791.550 10 0 59561 9000.00000 0 9988361.571 -20753664.083 11013797.632 10 0 59561 9900.00000 0 10592431.442 -21769675.794 8097406.651 10 0 59561 10800.00000 0 10920544.285 -22518150.673 5024083.851 10 0 59561 11700.00000 0 11005838.770 -22953554.724 1853363.888 10 0 59561 12600.00000 0 10890464.735 -23040013.309 -1353294.504 10 0 59561 13500.00000 0 10623576.717 -22752914.859 -4533694.069 10 0 59561 14400.00000 0 10259039.653 -22080063.277 -7626102.203 10 0 59561 15300.00000 0 9852943.403 -21022329.279 -10570448.435 10 0 59561 16200.00000 0 9461031.094 -19593771.703 -13309492.883 10 0 59561 17100.00000 0 9136150.172 -17821221.872 -15789942.706 10 0 59561 18000.00000 0 8925834.398 -15743346.682 -17963494.376 10 0 59561 18900.00000 0 8870119.746 -13409227.923 -19787781.012 10 0 59561 19800.00000 0 8999687.530 -10876515.712 -21227205.848 10 0 59561 20700.00000 0 9334414.402 -8209232.051 -22253644.950 10 0 59561 21600.00000 0 9882391.880 -5475315.203 -22847004.972 10 0 59561 22500.00000 0 10639458.210 -2744006.694 -22995624.464 10 0 59561 23400.00000 0 11589263.789 -83189.574 -22696510.265 10 0 59561 24300.00000 0 12703868.721 2443211.261 -21955403.779 10 0 59561 25200.00000 0 13944848.464 4777658.353 -20786675.223 10 0 59561 26100.00000 0 15264861.791 6871159.142 -19213047.359 10 0 59561 27000.00000 0 16609615.456 8685061.615 -17265153.707 10 0 59561 27900.00000 0 17920142.856 10192413.369 -14980939.564 10 0 59561 28800.00000 0 19135300.290 11378827.667 -12404917.560 10 0 59561 29700.00000 0 20194374.935 12242821.079 -9587292.542 10 0 59561 30600.00000 0 21039693.689 12795609.824 -6582973.405 10 0 59561 31500.00000 0 21619121.825 13060374.938 -3450492.067 10 0 59561 32400.00000 0 21888345.120 13071029.196 -250851.729 10 0 59561 33300.00000 0 21812838.423 12870539.900 2953671.967 10 0 59561 34200.00000 0 21369437.147 12508880.500 6100752.193 10 0 59561 35100.00000 0 20547445.299 12040699.637 9129229.788 10 0 59561 36000.00000 0 19349233.558 11522807.918 11980305.171 10 0 59561 36900.00000 0 17790302.713 11011589.944 14598679.562 10 0 59561 37800.00000 0 15898810.447 10560451.818 16933623.348 10 0 59561 38700.00000 0 13714581.957 10217412.167 18939951.292 10 0 59561 39600.00000 0 11287646.406 10022938.092 20578886.446 10 0 59561 40500.00000 0 8676360.663 10008116.567 21818797.252 10 0 59561 41400.00000 0 5945198.414 10193237.356 22635795.031 10 0 59561 42300.00000 0 3162296.253 10586845.954 23014181.729 10 0 59561 43200.00000 0 396857.692 11185305.359 22946740.778 10 0 59561 44100.00000 0 -2283478.572 11972884.350 22434866.617 10 0 59561 45000.00000 0 -4815198.620 12922368.173 21488531.268 10 0 59561 45900.00000 0 -7141297.344 13996166.099 20126089.072 10 0 59561 46800.00000 0 -9213389.701 15147869.943 18373923.352 10 0 59561 47700.00000 0 -10993463.414 16324199.065 16265941.432 10 0 59561 48600.00000 0 -12455202.070 17467251.462 13842927.012 10 0 59561 49500.00000 0 -13584825.003 18516967.779 11151761.332 10 0 59561 50400.00000 0 -14381409.946 19413705.982 8244527.104 10 0 59561 51300.00000 0 -14856685.728 20100819.558 5177511.339 10 0 59561 52200.00000 0 -15034304.056 20527131.524 2010125.271 10 0 59561 53100.00000 0 -14948620.929 20649200.364 -1196238.508 10 0 59561 54000.00000 0 -14643038.833 20433282.290 -4379390.231 10 0 59561 54900.00000 0 -14167979.203 19856906.427 -7477545.866 10 0 59561 55800.00000 0 -13578570.386 18909995.412 -10430525.473 10 0 59561 56700.00000 0 -12932148.485 17595482.666 -13180923.646 10 0 59561 57600.00000 0 -12285676.588 15929398.469 -15675229.036 10 0 59561 58500.00000 0 -11693191.584 13940419.273 -17864870.739 10 0 59561 59400.00000 0 -11203386.830 11668897.108 -19707170.708 10 0 59561 60300.00000 0 -10857433.429 9165407.810 -21166183.175 10 0 59561 61200.00000 0 -10687132.957 6488877.180 -22213404.091 10 0 59561 62100.00000 0 -10713480.647 3704361.976 -22828336.230 10 0 59561 63000.00000 0 -10945700.759 880577.252 -22998898.354 10 0 59561 63900.00000 0 -11380795.954 -1912727.429 -22721669.787 10 0 59561 64800.00000 0 -12003630.740 -4607433.985 -22001965.079 10 0 59561 65700.00000 0 -12787546.378 -7139653.067 -20853736.641 10 0 59561 66600.00000 0 -13695481.967 -9452144.188 -19299306.756 10 0 59561 67500.00000 0 -14681554.783 -11496457.808 -17368933.729 10 0 59561 68400.00000 0 -15693033.205 -13234709.960 -15100220.396 10 0 59561 69300.00000 0 -16672618.600 -14640915.418 -12537376.517 10 0 59561 70200.00000 0 -17560939.136 -15701824.188 -9730349.730 10 0 59561 71100.00000 0 -18299149.289 -16417227.176 -6733842.491 10 0 59561 72000.00000 0 -18831524.096 -16799719.457 -3606235.144 10 0 59561 72900.00000 0 -19107937.478 -16873932.841 -408437.115 10 0 59561 73800.00000 0 -19086118.896 -16675272.010 2797310.173 10 0 59561 74700.00000 0 -18733592.296 -16248209.619 5948654.027 10 0 59561 75600.00000 0 -18029214.992 -15644214.420 8984350.038 10 0 59561 76500.00000 0 -16964251.481 -14919401.806 11845455.857 10 0 59561 77400.00000 0 -15542937.117 -14132007.491 14476475.422 10 0 59561 78300.00000 0 -13782508.308 -13339792.090 16826431.375 10 0 59561 79200.00000 0 -11712698.443 -12597486.548 18849845.258 10 0 59561 80100.00000 0 -9374721.126 -11954386.074 20507607.260 10 0 59561 81000.00000 0 -6819783.463 -11452193.291 21767719.864 10 0 59561 81900.00000 0 -4107191.346 -11123200.351 22605902.464 10 0 59561 82800.00000 0 -1302125.232 -10988885.146 23006046.670 10 0 59561 83700.00000 0 1526821.976 -11058979.266 22960515.045 10 0 59561 84600.00000 0 4310244.081 -11331045.594 22470278.649 10 0 59561 85500.00000 0 6980551.463 -11790582.335 21544891.660 10 0 59562 0.00000 0 9474524.335 -12411648.531 20202304.168 10 0 59562 900.00000 0 11735686.760 -13157985.127 18468515.968 10 0 59562 1800.00000 0 13716401.487 -13984584.029 16377079.583 10 0 59562 2700.00000 0 15379604.850 -14839641.176 13968458.905 10 0 59562 3600.00000 0 16700107.635 -15666811.758 11289256.574 10 0 59562 4500.00000 0 17665410.215 -16407674.168 8391323.241 10 0 59562 5400.00000 0 18275998.438 -17004299.983 5330764.902 10 0 59562 6300.00000 0 18545108.345 -17401822.537 2166866.370 10 0 59562 7200.00000 0 18497969.574 -17550896.287 -1039049.047 10 0 59562 8100.00000 0 18170559.115 -17409943.255 -4224802.240 10 0 59562 9000.00000 0 17607917.465 -16947091.301 -7328560.879 10 0 59562 9900.00000 0 16862097.713 -16141721.485 -10290038.528 10 0 59562 10800.00000 0 15989833.644 -14985557.839 -13051667.015 10 0 59562 11700.00000 0 15050024.972 -13483251.798 -15559718.982 10 0 59562 12600.00000 0 14101145.742 -11652434.670 -17765358.329 10 0 59562 13500.00000 0 13198685.369 -9523233.697 -19625597.682 10 0 59562 14400.00000 0 12392730.623 -7137269.873 -21104143.727 10 0 59562 15300.00000 0 11725791.089 -4546177.454 -22172113.336 10 0 59562 16200.00000 0 11230960.475 -1809705.359 -22808606.002 10 0 59562 17100.00000 0 10930492.045 1006521.732 -23001120.831 10 0 59562 18000.00000 0 10834849.073 3833490.116 -22745809.333 10 0 59562 18900.00000 0 10942271.055 6601428.654 -22047558.467 10 0 59562 19800.00000 0 11238874.623 9242475.907 -20919901.725 10 0 59562 20700.00000 0 11699285.329 11693271.572 -19384759.423 10 0 59562 21600.00000 0 12287773.831 13897364.148 -17472012.853 10 0 59562 22500.00000 0 12959848.371 15807334.208 -15218920.288 10 0 59562 23400.00000 0 13664235.837 17386544.471 -12669386.251 10 0 59562 24300.00000 0 14345166.941 18610443.710 -9873098.531 10 0 59562 25200.00000 0 14944867.846 19467370.409 -6884550.305 10 0 59562 26100.00000 0 15406151.701 19958823.338 -3761967.329 10 0 59562 27000.00000 0 15674999.169 20099189.036 -566162.151 10 0 59562 27900.00000 0 15703017.615 19914939.374 2640661.128 10 0 59562 28800.00000 0 15449673.962 19443334.902 5796126.978 10 0 59562 29700.00000 0 14884206.074 18730690.699 8838908.580 10 0 59562 30600.00000 0 13987131.563 17830279.792 11709923.424 10 0 59562 31500.00000 0 12751290.263 16799964.275 14353480.488 10 0 59562 32400.00000 0 11182376.626 15699655.269 16718356.676 10 0 59562 33300.00000 0 9298939.918 14588709.507 18758782.014 10 0 59562 34200.00000 0 7131852.583 13523372.307 20435315.223 10 0 59562 35100.00000 0 4723269.190 12554374.066 21715593.918 10 0 59562 36000.00000 0 2125119.394 11724780.307 22574946.324 10 0 59562 36900.00000 0 -602802.599 11068184.229 22996854.147 10 0 59562 37800.00000 0 -3395073.334 10607316.043 22973259.134 10 0 59562 38700.00000 0 -6183108.530 10353125.798 22504708.616 10 0 59562 39600.00000 0 -8897763.554 10304376.768 21600338.140 10 0 59562 40500.00000 0 -11471959.875 10447765.327 20277692.027 10 0 59562 41400.00000 0 -13843230.486 10758561.607 18562385.353 10 0 59562 42300.00000 0 -15956080.432 11201743.877 16487613.525 10 0 59562 43200.00000 0 -17764066.210 11733579.206 14093518.184 10 0 59562 44100.00000 0 -19231509.079 12303584.636 11426420.654 10 0 59562 45000.00000 0 -20334771.989 12856787.117 8537936.648 10 0 59562 45900.00000 0 -21063047.696 13336187.991 5483988.171 10 0 59562 46800.00000 0 -21418625.497 13685328.909 2323730.639 10 0 59562 47700.00000 0 -21416625.443 13850851.495 -881584.850 10 0 59562 48600.00000 0 -21084210.971 13784942.901 -4069792.712 10 0 59562 49500.00000 0 -20459312.610 13447563.714 -7179015.063 10 0 59562 50400.00000 0 -19588915.898 12808363.379 -10148861.605 10 0 59562 51300.00000 0 -18526985.101 11848201.068 -12921603.868 10 0 59562 52200.00000 0 -17332109.706 10560206.145 -15443300.734 10 0 59562 53100.00000 0 -16064972.591 8950331.599 -17664852.890 10 0 59562 54000.00000 0 -14785746.383 7037374.894 -19542965.289 10 0 59562 54900.00000 0 -13551527.778 4852463.059 -21040998.355 10 0 59562 55800.00000 0 -12413918.128 2438021.398 -22129690.766 10 0 59562 56700.00000 0 -11416852.557 -153733.062 -22787739.199 10 0 59562 57600.00000 0 -10594769.471 -2862712.184 -23002223.164 10 0 59562 58500.00000 0 -9971198.063 -5623212.484 -22768865.981 10 0 59562 59400.00000 0 -9557823.758 -8366412.920 -22092126.237 10 0 59562 60300.00000 0 -9354071.307 -11023011.132 -20985117.318 10 0 59562 61200.00000 0 -9347223.340 -13525888.289 -19469356.023 10 0 59562 62100.00000 0 -9513069.314 -15812691.384 -17574344.740 10 0 59562 63000.00000 0 -9817057.168 -17828224.961 -15336995.011 10 0 59562 63900.00000 0 -10215898.463 -19526552.045 -12800903.744 10 0 59562 64800.00000 0 -10659558.253 -20872716.339 -10015496.384 10 0 59562 65700.00000 0 -11093544.382 -21844013.690 -7035054.262 10 0 59562 66600.00000 0 -11461398.007 -22430759.965 -3917645.973 10 0 59562 67500.00000 0 -11707278.498 -22636524.024 -723984.652 10 0 59562 68400.00000 0 -11778531.889 -22477817.312 2483765.430 10 0 59562 69300.00000 0 -11628132.933 -21983254.723 5643208.353 10 0 59562 70200.00000 0 -11216896.466 -21192223.974 8692937.296 10 0 59562 71100.00000 0 -10515363.886 -20153121.391 11573731.930 10 0 59562 72000.00000 0 -9505284.788 -18921230.192 14229708.521 10 0 59562 72900.00000 0 -8180631.224 -17556332.053 16609400.355 10 0 59562 73800.00000 0 -6548101.993 -16120153.393 18666747.861 10 0 59562 74700.00000 0 -4627096.102 -14673754.191 20361979.963 10 0 59562 75600.00000 0 -2449156.639 -13274968.757 21662370.766 10 0 59562 76500.00000 0 -56908.301 -11976005.056 22542858.364 10 0 59562 77400.00000 0 2497467.285 -10821301.943 22986515.229 10 0 59562 78300.00000 0 5154155.619 -9845732.434 22984862.610 10 0 59562 79200.00000 0 7847953.761 -9073226.401 22538024.078 10 0 59562 80100.00000 0 10510743.183 -8515868.639 21654716.189 10 0 59562 81000.00000 0 13074090.029 -8173508.414 20352076.958 10 0 59562 81900.00000 0 15471866.684 -8033895.679 18655335.510 10 0 59562 82800.00000 0 17642787.514 -8073337.416 16597328.953 10 0 59562 83700.00000 0 19532755.201 -8257846.277 14217875.064 10 0 59562 84600.00000 0 21096921.554 -8544733.333 11563011.896 10 0 59562 85500.00000 0 22301378.060 -8884578.430 8684117.921 10 0 59563 0.00000 0 23124406.420 -9223495.747 5636928.804 10 0 59563 900.00000 0 23557237.579 -9505599.928 2480467.069 10 0 59563 1800.00000 0 23604286.425 -9675568.832 -724091.300 10 0 59563 2700.00000 0 23282853.538 -9681195.575 -3914597.547 10 0 59563 3600.00000 0 22622304.763 -9475821.510 -7029131.561 10 0 59563 4500.00000 0 21662762.909 -9020547.039 -10007202.408 10 0 59563 5400.00000 0 20453365.803 -8286125.825 -12790924.343 10 0 59563 6300.00000 0 19050163.273 -7254460.974 -15326145.233 10 0 59563 7200.00000 0 17513741.026 -5919638.292 -17563504.984 10 0 59563 8100.00000 0 15906670.988 -4288450.958 -19459402.945 10 0 59563 9000.00000 0 14290895.133 -2380391.170 -20976854.977 10 0 59563 9900.00000 0 12725152.821 -227106.892 -22086222.869 10 0 59563 10800.00000 0 11262559.931 2128655.826 -22765801.382 10 0 59563 11700.00000 0 9948441.734 4634582.688 -23002250.896 10 0 59563 12600.00000 0 8818510.929 7230730.743 -22790866.576 10 0 59563 13500.00000 0 7897467.663 9851798.025 -22135678.234 10 0 59563 14400.00000 0 7198080.563 12429629.300 -21049378.320 10 0 59563 15300.00000 0 6720787.488 14895853.633 -19553078.868 10 0 59563 16200.00000 0 6453832.594 17184543.736 -17675901.729 10 0 59563 17100.00000 0 6373933.448 19234785.807 -15454409.713 10 0 59563 18000.00000 0 6447449.310 20993051.958 -12931889.773 10 0 59563 18900.00000 0 6632000.194 22415275.664 -10157502.353 10 0 59563 19800.00000 0 6878466.943 23468543.079 -7185314.016 10 0 59563 20700.00000 0 7133286.223 24132329.301 -4073233.072 10 0 59563 21600.00000 0 7340941.685 24399228.177 -881869.977 10 0 59563 22500.00000 0 7446544.183 24275145.843 2326654.125 10 0 59563 23400.00000 0 7398390.376 23778951.054 5489926.164 10 0 59563 24300.00000 0 7150390.117 22941598.619 8546462.407 10 0 59563 25200.00000 0 6664259.042 21804764.495 11436907.565 10 0 59563 26100.00000 0 5911383.140 20419051.686 14105187.768 10 0 59563 27000.00000 0 4874276.338 18841843.885 16499594.940 10 0 59563 27900.00000 0 3547569.716 17134898.161 18573781.845 10 0 59563 28800.00000 0 1938490.939 15361778.402 20287649.207 10 0 59563 29700.00000 0 66813.984 13585237.175 21608108.898 10 0 59563 30600.00000 0 -2035718.679 11864655.053 22509709.804 10 0 59563 31500.00000 0 -4326477.367 10253643.502 22975115.730 10 0 59563 32400.00000 0 -6753485.334 8797909.938 22995427.603 10 0 59563 33300.00000 0 -9257354.444 7533472.294 22570344.991 10 0 59563 34200.00000 0 -11773536.993 6485295.735 21708164.757 10 0 59563 35100.00000 0 -14234801.523 5666406.573 20425617.433 10 0 59563 36000.00000 0 -16573831.483 5077518.744 18747544.542 10 0 59563 36900.00000 0 -18725840.374 4707187.202 16706422.775 10 0 59563 37800.00000 0 -20631096.346 4532480.937 14341743.529 10 0 59563 38700.00000 0 -22237252.675 4520146.957 11699258.750 10 0 59563 39600.00000 0 -23501388.112 4628216.361 8830106.595 10 0 59563 40500.00000 0 -24391672.779 4807985.208 5789832.623 10 0 59563 41400.00000 0 -24888590.405 5006287.170 2637324.326 10 0 59563 42300.00000 0 -24985665.665 5167962.636 -566321.167 10 0 59563 43200.00000 0 -24689665.812 5238420.268 -3758975.048 10 0 59563 44100.00000 0 -24020267.437 5166182.920 -6878677.972 10 0 59563 45000.00000 0 -23009201.542 4905309.967 -9864841.203 10 0 59563 45900.00000 0 -21698911.883 4417592.973 -12659424.377 10 0 59563 46800.00000 0 -20140782.059 3674430.744 -15208066.767 10 0 59563 47700.00000 0 -18393005.054 2658303.081 -17461149.618 10 0 59563 48600.00000 0 -16518184.071 1363779.135 -19374768.433 10 0 59563 49500.00000 0 -14580764.935 -201984.257 -20911595.831 10 0 59563 50400.00000 0 -12644407.597 -2019277.494 -22041617.555 10 0 59563 51300.00000 0 -10769406.946 -4056407.177 -22742726.785 10 0 59563 52200.00000 0 -9010271.104 -6270777.456 -23001164.591 10 0 59563 53100.00000 0 -7413558.956 -8610440.236 -22811797.314 10 0 59563 54000.00000 0 -6016067.717 -11016050.914 -22178224.869 10 0 59563 54900.00000 0 -4843446.609 -13423148.948 -21112717.236 10 0 59563 55800.00000 0 -3909294.841 -15764668.458 -19635979.806 10 0 59563 56700.00000 0 -3214781.454 -17973574.122 -17776751.714 10 0 59563 57600.00000 0 -2748802.467 -19985511.971 -15571244.657 10 0 59563 58500.00000 0 -2488667.875 -21741363.673 -13062433.089 10 0 59563 59400.00000 0 -2401288.378 -23189596.835 -10299209.851 10 0 59563 60300.00000 0 -2444810.255 -24288312.295 -7335424.126 10 0 59563 61200.00000 0 -2570627.706 -25006902.174 -4228821.376 10 0 59563 62100.00000 0 -2725685.691 -25327249.066 -1039906.895 10 0 59563 63000.00000 0 -2854974.009 -25244416.348 2169243.684 10 0 59563 63900.00000 0 -2904105.324 -24766801.363 5336202.426 10 0 59563 64800.00000 0 -2821866.489 -23915746.191 8399410.877 10 0 59563 65700.00000 0 -2562634.027 -22724623.784 11299380.879 10 0 59563 66600.00000 0 -2088550.853 -21237439.409 13979850.409 10 0 59563 67500.00000 0 -1371371.858 -19507007.598 16388871.881 10 0 59563 68400.00000 0 -393900.431 -17592782.323 18479812.061 10 0 59563 69300.00000 0 849044.410 -15558432.150 20212244.931 10 0 59563 70200.00000 0 2350170.657 -13469262.189 21552721.314 10 0 59563 71100.00000 0 4089784.726 -11389590.246 22475401.793 10 0 59563 72000.00000 0 6036388.539 -9380185.967 22962542.104 10 0 59563 72900.00000 0 8147777.586 -7495878.353 23004823.143 10 0 59563 73800.00000 0 10372594.749 -5783429.607 22601520.461 10 0 59563 74700.00000 0 12652275.997 -4279761.984 21760510.931 10 0 59563 75600.00000 0 14923308.261 -3010609.449 20498117.035 10 0 59563 76500.00000 0 17119707.011 -1989648.432 18838791.853 10 0 59563 77400.00000 0 19175612.017 -1218142.371 16814650.569 10 0 59563 78300.00000 0 21027894.844 -685113.527 14464856.819 10 0 59563 79200.00000 0 22618670.931 -368034.066 11834874.774 10 0 59563 80100.00000 0 23897612.614 -234006.976 8975600.297 10 0 59563 81000.00000 0 24823967.346 -241387.134 5942386.823 10 0 59563 81900.00000 0 25368197.166 -341774.479 2793983.675 10 0 59563 82800.00000 0 25513170.706 -482295.634 -408593.463 10 0 59563 83700.00000 0 25254857.374 -608078.006 -3603238.747 10 0 59563 84600.00000 0 24602493.852 -664811.982 -6727956.710 10 0 59563 85500.00000 0 23578214.887 -601292.882 -9722063.892 10 0 59564 0.00000 0 22216162.894 -371834.747 -12527368.006 10 0 59564 900.00000 0 20561111.784 61547.053 -15089302.969 10 0 59564 1800.00000 0 18666663.599 727277.494 -17357993.552 10 0 59564 2700.00000 0 16593090.224 1642768.318 -19289233.579 10 0 59564 3600.00000 0 14404911.661 2813432.128 -20845354.286 10 0 59564 4500.00000 0 12168311.199 4232207.878 -21995966.921 10 0 59564 5400.00000 0 9948495.483 5879619.843 -22718564.308 10 0 59564 6300.00000 0 7807109.863 7724369.773 -22998969.106 10 0 59564 7200.00000 0 5799817.211 9724439.242 -22831619.354 10 0 59564 8100.00000 0 3974141.580 11828657.642 -22219685.191 10 0 59564 9000.00000 0 2367666.942 13978671.409 -21175013.817 10 0 59564 9900.00000 0 1006666.441 16111232.751 -19717903.222 10 0 59564 10800.00000 0 -94780.702 18160712.406 -17876708.633 10 0 59564 11700.00000 0 -935148.120 20061731.146 -15687288.983 10 0 59564 12600.00000 0 -1525282.765 21751799.279 -13192304.188 10 0 59564 13500.00000 0 -1887695.692 23173852.871 -10440377.053 10 0 59564 14400.00000 0 -2055354.520 24278579.579 -7485136.638 10 0 59564 15300.00000 0 -2070030.236 25026435.742 -4384162.541 10 0 59564 16200.00000 0 -1980270.154 25389269.605 -1197851.700 10 0 59564 17100.00000 0 -1839084.725 25351482.337 2011769.051 10 0 59564 18000.00000 0 -1701447.985 24910678.315 5182260.220 10 0 59564 18900.00000 0 -1621719.165 24077778.060 8251991.855 10 0 59564 19800.00000 0 -1651096.004 22876590.070 11161345.999 10 0 59564 20700.00000 0 -1835208.483 21342860.801 13853875.332 10 0 59564 21600.00000 0 -2211955.264 19522843.984 16277395.344 10 0 59564 22500.00000 0 -2809674.377 17471450.393 18384989.118 10 0 59564 23400.00000 0 -3645725.098 15250056.449 20135905.893 10 0 59564 24300.00000 0 -4725540.371 12924063.725 21496337.142 10 0 59564 25200.00000 0 -6042189.192 10560311.107 22440056.497 10 0 59564 26100.00000 0 -7576466.994 8224446.933 22948912.611 10 0 59564 27000.00000 0 -9297510.172 5978369.348 23013166.935 10 0 59564 27900.00000 0 -11163909.335 3877839.721 22631671.151 10 0 59564 28800.00000 0 -13125275.378 1970366.547 21811881.805 10 0 59564 29700.00000 0 -15124194.054 293445.734 20569712.478 10 0 59564 30600.00000 0 -17098488.821 -1126771.605 18929226.439 10 0 59564 31500.00000 0 -18983699.066 -2276330.162 16922175.473 10 0 59564 32400.00000 0 -20715671.915 -3153806.407 14587393.108 10 0 59564 33300.00000 0 -22233160.924 -3770116.720 11970052.966 10 0 59564 34200.00000 0 -23480324.308 -4147806.434 9120805.532 10 0 59564 35100.00000 0 -24409019.200 -4319850.072 6094808.808 10 0 59564 36000.00000 0 -24980796.368 -4328013.246 2950670.508 10 0 59564 36900.00000 0 -25168511.829 -4220845.006 -250678.599 10 0 59564 37800.00000 0 -24957487.400 -4051385.052 -3447159.078 10 0 59564 38700.00000 0 -24346170.617 -3874682.393 -6576742.680 10 0 59564 39600.00000 0 -23346265.230 -3745230.201 -9578654.430 10 0 59564 40500.00000 0 -21982325.463 -3714425.537 -12394553.634 10 0 59564 41400.00000 0 -20290829.614 -3828161.854 -14969670.630 10 0 59564 42300.00000 0 -18318770.528 -4124656.921 -17253876.733 10 0 59564 43200.00000 0 -16121820.728 -4632609.160 -19202666.179 10 0 59564 44100.00000 0 -13762147.973 -5369761.784 -20778030.450 10 0 59564 45000.00000 0 -11305971.895 -6341937.031 -21949207.375 10 0 59564 45900.00000 0 -8820963.259 -7542583.136 -22693289.924 10 0 59564 46800.00000 0 -6373594.177 -8952855.053 -22995682.226 10 0 59564 47700.00000 0 -4026549.850 -10542227.386 -22850393.338 10 0 59564 48600.00000 0 -1836309.875 -12269615.423 -22260162.415 10 0 59564 49500.00000 0 148999.856 -14084958.603 -21236412.218 10 0 59564 50400.00000 0 1891394.885 -15931200.820 -19799031.300 10 0 59564 51300.00000 0 3364384.967 -17746585.024 -17975988.631 10 0 59564 52200.00000 0 4553835.700 -19467165.878 -15802787.812 10 0 59564 53100.00000 0 5458303.516 -21029434.605 -13321771.477 10 0 59564 54000.00000 0 6088831.098 -22372945.183 -10581289.565 10 0 59564 54900.00000 0 6468213.195 -23442830.688 -7634748.124 10 0 59564 55800.00000 0 6629765.487 -24192103.124 -4539558.025 10 0 59564 56700.00000 0 6615650.413 -24583639.264 -1356005.040 10 0 59564 57600.00000 0 6474832.756 -24591768.467 1853935.507 10 0 59564 58500.00000 0 6260753.494 -24203395.494 5027815.140 10 0 59564 59400.00000 0 6028822.231 -23418611.350 8103934.812 10 0 59564 60300.00000 0 5833835.947 -22250767.040 11022548.987 10 0 59564 61200.00000 0 5727434.467 -20726008.059 13727027.053 10 0 59564 62100.00000 0 5755700.991 -18882290.189 16164949.341 10 0 59564 63000.00000 0 5957009.346 -16767918.836 18289116.749 10 0 59564 63900.00000 0 6360208.635 -14439673.954 20058454.980 10 0 59564 64800.00000 0 6983221.366 -11960599.377 21438797.041 10 0 59564 65700.00000 0 7832113.425 -9397548.784 22403530.177 10 0 59564 66600.00000 0 8900674.377 -6818590.156 22934096.205 10 0 59564 67500.00000 0 10170525.243 -4290375.637 23020337.065 10 0 59564 68400.00000 0 11611749.124 -1875584.664 22660680.216 10 0 59564 69300.00000 0 13184018.462 369455.200 21862161.275 10 0 59564 70200.00000 0 14838172.451 2396872.974 20640284.088 10 0 59564 71100.00000 0 16518179.647 4168999.189 19018721.072 10 0 59564 72000.00000 0 18163405.027 5659680.431 17028859.380 10 0 59564 72900.00000 0 19711088.138 6855110.559 14709200.992 10 0 59564 73800.00000 0 21098930.194 7754145.432 12104627.349 10 0 59564 74700.00000 0 22267683.053 8368088.941 9265541.696 10 0 59564 75600.00000 0 23163632.714 8719960.063 6246904.521 10 0 59564 76500.00000 0 23740873.794 8843271.948 3107179.625 10 0 59564 77400.00000 0 23963279.732 8780374.355 -92789.622 10 0 59564 78300.00000 0 23806085.675 8580429.103 -3290952.829 10 0 59564 79200.00000 0 23257016.784 8297103.676 -6425251.662 10 0 59564 80100.00000 0 22316913.394 7986080.200 -9434822.312 10 0 59564 81000.00000 0 20999825.336 7702485.021 -12261178.018 10 0 59564 81900.00000 0 19332569.798 7498347.799 -14849348.456 10 0 59564 82800.00000 0 17353769.647 7420198.026 -17148953.436 10 0 59564 83700.00000 0 15112410.887 7506901.400 -19115189.600 10 0 59564 84600.00000 0 12665978.205 7787828.584 -20709710.446 10 0 59564 85500.00000 0 10078245.440 8281435.019 -21901381.951 99